Printer-friendly version

IAU Minor Planet Center

Minor Planet Center

MPEC 2002-R35 : 2000 GS146

The following Minor Planet Electronic Circular may be linked-to from your own Web pages, but must not otherwise be redistributed electronically.


Read MPEC 2002-R34 Read MPEC 2002-R36


M.P.E.C. 2002-R35                                Issued 2002 Sept. 8, 22:38 UT

     The Minor Planet Electronic Circulars contain information on unusual
         minor planets and routine data on comets.  They are published
   on behalf of Commission 20 of the International Astronomical Union by the
          Minor Planet Center, Smithsonian Astrophysical Observatory,
                          Cambridge, MA 02138, U.S.A.

             Prepared using the Tamkin Foundation Computer Network

                              MPC@CFA.HARVARD.EDU
          URL http://cfa-www.harvard.edu/iau/mpc.html  ISSN 1523-6714

                                  2000 GS146

                           Revision to MPEC 2000-H05

Observations:
     K00GE6S  C2002 09 07.07677 05 43 45.00 +21 38 22.7          19.8 R      540
     K00GE6S  C2002 09 07.11994 05 43 52.75 +21 40 14.9          19.8 R      540
     K00GE6S  C2002 09 08.08134 05 46 50.89 +22 21 39.4          20.3 R      540
     K00GE6S  C2002 09 08.08892 05 46 52.33 +22 21 58.5          20.1 R      540
     K00GE6S  C2002 09 08.09650 05 46 53.83 +22 22 18.7          20.4 R      540
     K00GE6S  C2002 09 08.10408 05 46 55.27 +22 22 38.2          20.2 R      540
     K00GE6S  C2002 09 08.11166 05 46 56.49 +22 22 57.4          20.0 R      540

Observer details:
540 Linz.  Observers E. Meyer, E. Obermair.  0.6-m f/3.0 reflector + CCD.

First and last observations above in comparison with prediction:
Residuals in seconds of arc (or two decimals in degrees), reference and Delta-T
020907 540 0.02+ 0.03+    020908 540 0.02+ 0.03+    MPO  2771   -0.052 day

Orbital elements:
2000 GS146
Epoch 2002 Nov. 22.0 TT = JDT 2452600.5                 MPC
M 349.40769              (2000.0)            P               Q
n   0.66144533     Peri.   80.85027     -0.24267374     -0.88147607
a   1.3045881      Node    33.72917     +0.30971221     -0.46613042
e   0.1972121      Incl.   46.84996     +0.91934096     -0.07564638
P   1.49           H   18.1           G   0.15           U   3
Residuals in seconds of arc
000406 704  0.1-  0.6-    000409 568  0.1+  0.1-    000428 860  0.9+  0.7+
000406 704  0.3-  1.2+    000413 704  1.4-  0.8-    000429 413  0.1+  0.2+
000406 704  0.8-  0.8-    000413 704  1.3+  1.2-    000429 413  0.1+  0.2+
000406 704  0.3-  0.1+    000413 704  0.3+  0.2-    000430 413  0.0   0.3-
000407 860  0.1-  1.2+    000413 704  0.3-  0.0     000430 413  0.2-  0.1-
000407 860  0.3+  0.9+    000413 704  0.4+  0.4-    000501 413  0.0   0.2-
000407 860 (1.2-  2.3-)   000413 704 (2.1+  0.0 )   000501 413  0.2+  0.1-
000407 704  0.9-  0.5+    000413 704  0.5+  0.6-    000611 413  0.1+  0.5-
000407 704  0.6-  0.2-    000414 860  1.6+  0.1+    000611 413  0.4+  0.7-
000407 704  0.5+  0.1-    000414 860  0.2+  1.0-    000611 413  0.5+  0.4-
000407 704  1.1-  1.0+    000414 860  0.2-  1.6-    000614 413  0.4+  0.6-
000407 704  0.5-  0.5+    000414 860  0.6+  0.7+    000614 413  0.3+  0.2-
000408 621  0.2-  0.2-    000414 860  1.4-  0.6-    000614 413  0.3+  0.3-
000408 621  0.1-  0.1-    000414 704  0.8+  0.3+    000708 413  0.0   1.3+
000408 621  0.4-  0.2-    000414 704  0.2+  0.9+    000708 413  0.5-  0.1-
000408 621  0.2-  0.0     000414 704  0.3-  0.1-    000723 413  1.3-  0.8+
000408 621  0.1-  0.3+    000414 704  0.5+  0.8-    020907 540  0.7+  0.9-
000408 621  0.5-  0.0     000414 704  0.2+  0.2+    020907 540  0.5-  0.1+
000409 046  0.5+  0.8+    000415 673 (0.6+  6.5+)   020908 540  0.7-  0.6+
000409 046  0.7+  0.1+    000415 673 (1.5+  6.5+)   020908 540  0.2-  0.1-
000409 046  0.4+  0.0     000415 673 (1.5+  5.4+)   020908 540  1.1+  0.3+
000409 046  0.4-  0.9+    000428 860  1.1-  0.3-    020908 540  1.6+  0.1-
000409 046  0.2-  0.2+    000428 860  0.3-  0.5-    020908 540  1.0-  0.7-
000409 568  0.3+  0.2-    000428 860  0.3-  0.7+

Ephemeris:
2000 GS146               a,e,i = 1.30, 0.20, 47                  q = 1.0473
Date    TT    R. A. (2000) Decl.     Delta      r     Elong.  Phase     V
2002 09 03    05 31.77   +18 50.0    0.974    1.235    77.0    52.7    20.4
2002 09 13    06 03.04   +26 03.6    0.875    1.205    79.3    55.1    20.2
2002 09 23    06 43.00   +34 22.6    0.792    1.176    80.9    57.4    20.0
2002 10 03    07 37.41   +43 12.9    0.733    1.148    81.4    59.5    19.9
2002 10 13    08 53.23   +50 58.0    0.704    1.123    80.5    61.2    19.8
2002 10 23    10 29.82   +55 12.5    0.709    1.100    78.4    62.4    19.8
2002 11 02    12 06.75   +54 45.1    0.742    1.080    75.5    62.8    19.9
2002 11 12    13 22.64   +51 02.0    0.794    1.065    72.4    62.4    20.0
2002 11 22    14 16.00   +46 05.4    0.854    1.054    69.4    61.3    20.1
2002 12 02    14 53.89   +41 02.6    0.912    1.048    66.9    59.9    20.1
2002 12 12    15 22.13   +36 17.1    0.963    1.048    65.1    58.5    20.2
2002 12 22    15 44.36   +31 52.1    1.000    1.052    64.1    57.2    20.3
2003 01 01    16 02.73   +27 44.3    1.021    1.062    64.0    56.3    20.3
2003 01 11    16 18.47   +23 48.8    1.023    1.077    64.9    55.8    20.3
2003 01 21    16 32.29   +19 59.1    1.006    1.096    66.8    55.6    20.3
2003 01 31    16 44.60   +16 08.3    0.971    1.118    69.7    55.7    20.3
2003 02 10    16 55.49   +12 07.8    0.918    1.143    73.7    55.9    20.2
2003 02 20    17 04.87   +07 45.4    0.851    1.170    78.6    55.9    20.1
2003 03 02    17 12.41   +02 44.6    0.773    1.199    84.7    55.4    19.9
2003 03 12    17 17.33   -03 19.3    0.688    1.229    92.1    53.9    19.7
2003 03 22    17 18.32   -11 01.9    0.602    1.259   101.1    50.9    19.4
2003 04 01    17 12.85   -21 06.1    0.525    1.290   111.8    46.0    19.0
2003 04 11    16 55.85   -33 54.5    0.468    1.319   123.4    39.3    18.6
2003 04 21    16 17.52   -48 10.0    0.446    1.348   132.7    33.2    18.4
2003 05 01    15 03.25   -59 51.1    0.467    1.376   134.6    31.4    18.5
2003 05 11    13 19.83   -64 48.9    0.524    1.402   129.4    33.8    18.8
2003 05 21    11 56.63   -64 04.0    0.606    1.427   121.7    37.1    19.3
2003 05 31    11 12.21   -61 31.8    0.702    1.450   114.1    39.7    19.7
2003 06 10    10 53.35   -59 15.2    0.803    1.471   107.4    41.2    20.1
2003 06 20    10 48.63   -57 44.2    0.904    1.490   101.6    41.9    20.4
2003 06 30    10 52.31   -56 59.0    1.001    1.507    96.6    42.1    20.6
2003 07 10    11 01.62   -56 54.3    1.092    1.522    92.3    41.9    20.8
2003 07 20    11 15.21   -57 23.6    1.176    1.534    88.5    41.5    21.0

Gareth V. Williams           (C) Copyright 2002 MPC           M.P.E.C. 2002-R35

Read MPEC 2002-R34 Read MPEC 2002-R36


Our Web policy. Index to the CBAT/MPC/ICQ pages.


Valid HTML 4.01!